(°C)
22°
21°
20°
20°
19°
19°
18°
(°C)
20°
19°
18°
17°
17°
16°
16°
SSW
SSW
SSW
SSW
SSW
SSW
SW
(km/h)
17-29
16-28
15-27
15-27
15-27
15-27
16-28
(mm)
0
0
0
0
0
0
0
(%)
0
0
0
0
0
0
0

Elevazione del sole

/
sun-icon
UV 7
05:06
20:21
Luna calante (331°)
03:06
18:33

METAR per Barnstable (KHYA)

Ora Condizioni Temperatura/
Punto di rugiada
Vento Visibilità Meteo Nuvole Pressione Cambiamento Grezzo
VFR 22.8°C / 19.4°C 200º 8kt >10km - Clear 1017 - KHYA 262256Z 20008KT 10SM CLR 23/19 A3004 RMK AO2 SLP172 T02280194 $
VFR 23.9°C / 18.9°C 210º 10kt >10km - Clear 1017 - KHYA 262156Z 21010KT 10SM CLR 24/19 A3005 RMK AO2 SLP177 T02390189 $
VFR 25°C / 18.9°C 210º 12kt Gust 20kt >10km - Clear 1017 - KHYA 262056Z 21012G20KT 10SM CLR 25/19 A3006 RMK AO2 SLP179 T02500189 56006 $
VFR 26.1°C / 18.9°C 190º 9kt Gust 17kt >10km - Clear 1018 - KHYA 261956Z 19009G17KT 10SM CLR 26/19 A3006 RMK AO2 SLP180 T02610189 $
VFR 26.1°C / 18.3°C 210º 12kt >10km - Clear 1018 - KHYA 261856Z 21012KT 10SM CLR 26/18 A3007 RMK AO2 SLP182 T02610183 $
VFR 26.7°C / 18.3°C 190º 11kt >10km - Clear 1018 - KHYA 261756Z 19011KT 10SM CLR 27/18 A3007 RMK AO2 SLP185 T02670183 10272 20228 58013 $
VFR 26.7°C / 19.4°C 180º 8kt >10km - Clear 1018 - KHYA 261656Z 18008KT 10SM CLR 27/19 A3009 RMK AO2 SLP189 T02670194 $
VFR 26.1°C / 20°C 170º 6kt >10km - Clear 1019 - KHYA 261556Z 17006KT 10SM CLR 26/20 A3011 RMK AO2 SLP195 T02610200 $
VFR 26.1°C / 20°C 190º 7kt >10km - Clear 1019 - KHYA 261456Z 19007KT 10SM CLR 26/20 A3011 RMK AO2 SLP198 T02610200 58001 $
VFR 25.6°C / 20°C 170º 6kt >10km - Clear 1019 - KHYA 261356Z 17006KT 10SM CLR 26/20 A3011 RMK AO2 SLP198 T02560200 $
VFR 25°C / 20°C variable 3kt >10km - Clear 1019 - KHYA 261256Z VRB03KT 10SM CLR 25/20 A3012 RMK AO2 SLP199 T02500200 $
VFR 22.8°C / 19.4°C 170º 4kt >10km - Clear 1019 - KHYA 261156Z 17004KT 10SM CLR 23/19 A3012 RMK AO2 SLP199 T02280194 10233 20167 50003 $
VFR 21.7°C / 19.4°C 190º 3kt >10km - Clear 1020 - KHYA 261056Z 19003KT 10SM CLR 22/19 A3012 RMK AO2 SLP200 T02170194 $
VFR 20°C / 18.9°C 200º 4kt >10km - Clear 1019 - KHYA 260956Z 20004KT 10SM CLR 20/19 A3011 RMK AO2 SLP197 T02000189 $
MVFR 20°C / 18.9°C 190º 4kt 4800m Mist Vertical Visibility of 0ft. - KHYA 260946Z 19004KT 3SM BR CLR 20/19 A3011 RMK AO2 T02000189 $
IFR 20°C / 18.9°C 180º 3kt 4000m Mist Vertical Visibility of 0ft. - KHYA 260936Z AUTO 18003KT 2 1/2SM BR CLR 20/19 A3011 RMK AO2 T02000189 $
IFR 19.4°C / 18.9°C 190º 3kt 2800m Mist Vertical Visibility of 0ft. - KHYA 260924Z AUTO 19003KT 1 3/4SM BR SCT001 19/19 A3011 RMK AO2 T01940189 $
LIFR 20°C / 18.9°C 200º 4kt 2000m Mist Vertical Visibility of 0ft. 1019 - KHYA 260856Z AUTO 20004KT 1 1/4SM BR OVC002 20/19 A3011 RMK AO2 SLP196 T02000189 51001 $
LIFR 20°C / 19°C 210º 5kt 1600m Mist Vertical Visibility of 0ft. - KHYA 260850Z AUTO 21005KT 1SM BR OVC002 20/19 A3011 RMK AO2 $
20°C / 18.9°C 200º 4kt 800m Fog Vertical Visibility of 0ft. - KHYA 260835Z AUTO 20004KT 1/2SM FG 20/19 A3011 RMK AO2 T02000189 $
20°C / 18.9°C 190º 4kt 2800m Mist Vertical Visibility of 0ft. - KHYA 260825Z AUTO 19004KT 1 3/4SM BR 20/19 A3010 RMK AO2 T02000189 $
MVFR 20°C / 18.3°C 220º 4kt 6400m Mist Vertical Visibility of 0ft. 1019 - KHYA 260756Z AUTO 22004KT 4SM BR FEW004 20/18 A3011 RMK AO2 SLP196 T02000183 $
VFR 16.7°C / 14.4°C variable 0kt >10km - Clear 1019 - KHYA 260656Z AUTO 00000KT 9SM CLR 17/14 A3010 RMK AO2 SLP195 T01670144 $
VFR 16.7°C / 15°C variable 0kt >10km - Clear 1019 - KHYA 260556Z AUTO 00000KT 10SM CLR 17/15 A3011 RMK AO2 SLP196 T01670150 10233 20167 50001 $

VFR

22.8°C / 19.4°C

[Più]
Vento 200º 8kt
Visibilità >10km
Meteo -
Nuvole Clear
Pressione 1017
Cambiamento -
Grezzo KHYA 262256Z 20008KT 10SM CLR 23/19 A3004 RMK AO2 SLP172 T02280194 $

VFR

23.9°C / 18.9°C

[Più]
Vento 210º 10kt
Visibilità >10km
Meteo -
Nuvole Clear
Pressione 1017
Cambiamento -
Grezzo KHYA 262156Z 21010KT 10SM CLR 24/19 A3005 RMK AO2 SLP177 T02390189 $

VFR

25°C / 18.9°C

[Più]
Vento 210º 12kt Gust 20kt
Visibilità >10km
Meteo -
Nuvole Clear
Pressione 1017
Cambiamento -
Grezzo KHYA 262056Z 21012G20KT 10SM CLR 25/19 A3006 RMK AO2 SLP179 T02500189 56006 $

VFR

26.1°C / 18.9°C

[Più]
Vento 190º 9kt Gust 17kt
Visibilità >10km
Meteo -
Nuvole Clear
Pressione 1018
Cambiamento -
Grezzo KHYA 261956Z 19009G17KT 10SM CLR 26/19 A3006 RMK AO2 SLP180 T02610189 $

VFR

26.1°C / 18.3°C

[Più]
Vento 210º 12kt
Visibilità >10km
Meteo -
Nuvole Clear
Pressione 1018
Cambiamento -
Grezzo KHYA 261856Z 21012KT 10SM CLR 26/18 A3007 RMK AO2 SLP182 T02610183 $

VFR

26.7°C / 18.3°C

[Più]
Vento 190º 11kt
Visibilità >10km
Meteo -
Nuvole Clear
Pressione 1018
Cambiamento -
Grezzo KHYA 261756Z 19011KT 10SM CLR 27/18 A3007 RMK AO2 SLP185 T02670183 10272 20228 58013 $

VFR

26.7°C / 19.4°C

[Più]
Vento 180º 8kt
Visibilità >10km
Meteo -
Nuvole Clear
Pressione 1018
Cambiamento -
Grezzo KHYA 261656Z 18008KT 10SM CLR 27/19 A3009 RMK AO2 SLP189 T02670194 $

VFR

26.1°C / 20°C

[Più]
Vento 170º 6kt
Visibilità >10km
Meteo -
Nuvole Clear
Pressione 1019
Cambiamento -
Grezzo KHYA 261556Z 17006KT 10SM CLR 26/20 A3011 RMK AO2 SLP195 T02610200 $

VFR

26.1°C / 20°C

[Più]
Vento 190º 7kt
Visibilità >10km
Meteo -
Nuvole Clear
Pressione 1019
Cambiamento -
Grezzo KHYA 261456Z 19007KT 10SM CLR 26/20 A3011 RMK AO2 SLP198 T02610200 58001 $

VFR

25.6°C / 20°C

[Più]
Vento 170º 6kt
Visibilità >10km
Meteo -
Nuvole Clear
Pressione 1019
Cambiamento -
Grezzo KHYA 261356Z 17006KT 10SM CLR 26/20 A3011 RMK AO2 SLP198 T02560200 $

VFR

25°C / 20°C

[Più]
Vento variable 3kt
Visibilità >10km
Meteo -
Nuvole Clear
Pressione 1019
Cambiamento -
Grezzo KHYA 261256Z VRB03KT 10SM CLR 25/20 A3012 RMK AO2 SLP199 T02500200 $

VFR

22.8°C / 19.4°C

[Più]
Vento 170º 4kt
Visibilità >10km
Meteo -
Nuvole Clear
Pressione 1019
Cambiamento -
Grezzo KHYA 261156Z 17004KT 10SM CLR 23/19 A3012 RMK AO2 SLP199 T02280194 10233 20167 50003 $

VFR

21.7°C / 19.4°C

[Più]
Vento 190º 3kt
Visibilità >10km
Meteo -
Nuvole Clear
Pressione 1020
Cambiamento -
Grezzo KHYA 261056Z 19003KT 10SM CLR 22/19 A3012 RMK AO2 SLP200 T02170194 $

VFR

20°C / 18.9°C

[Più]
Vento 200º 4kt
Visibilità >10km
Meteo -
Nuvole Clear
Pressione 1019
Cambiamento -
Grezzo KHYA 260956Z 20004KT 10SM CLR 20/19 A3011 RMK AO2 SLP197 T02000189 $

MVFR

20°C / 18.9°C

[Più]
Vento 190º 4kt
Visibilità 4800m
Meteo Mist
Nuvole Vertical Visibility of 0ft.
Pressione
Cambiamento -
Grezzo KHYA 260946Z 19004KT 3SM BR CLR 20/19 A3011 RMK AO2 T02000189 $

IFR

20°C / 18.9°C

[Più]
Vento 180º 3kt
Visibilità 4000m
Meteo Mist
Nuvole Vertical Visibility of 0ft.
Pressione
Cambiamento -
Grezzo KHYA 260936Z AUTO 18003KT 2 1/2SM BR CLR 20/19 A3011 RMK AO2 T02000189 $

IFR

19.4°C / 18.9°C

[Più]
Vento 190º 3kt
Visibilità 2800m
Meteo Mist
Nuvole Vertical Visibility of 0ft.
Pressione
Cambiamento -
Grezzo KHYA 260924Z AUTO 19003KT 1 3/4SM BR SCT001 19/19 A3011 RMK AO2 T01940189 $

LIFR

20°C / 18.9°C

[Più]
Vento 200º 4kt
Visibilità 2000m
Meteo Mist
Nuvole Vertical Visibility of 0ft.
Pressione 1019
Cambiamento -
Grezzo KHYA 260856Z AUTO 20004KT 1 1/4SM BR OVC002 20/19 A3011 RMK AO2 SLP196 T02000189 51001 $

LIFR

20°C / 19°C

[Più]
Vento 210º 5kt
Visibilità 1600m
Meteo Mist
Nuvole Vertical Visibility of 0ft.
Pressione
Cambiamento -
Grezzo KHYA 260850Z AUTO 21005KT 1SM BR OVC002 20/19 A3011 RMK AO2 $

20°C / 18.9°C

[Più]
Vento 200º 4kt
Visibilità 800m
Meteo Fog
Nuvole Vertical Visibility of 0ft.
Pressione
Cambiamento -
Grezzo KHYA 260835Z AUTO 20004KT 1/2SM FG 20/19 A3011 RMK AO2 T02000189 $

20°C / 18.9°C

[Più]
Vento 190º 4kt
Visibilità 2800m
Meteo Mist
Nuvole Vertical Visibility of 0ft.
Pressione
Cambiamento -
Grezzo KHYA 260825Z AUTO 19004KT 1 3/4SM BR 20/19 A3010 RMK AO2 T02000189 $

MVFR

20°C / 18.3°C

[Più]
Vento 220º 4kt
Visibilità 6400m
Meteo Mist
Nuvole Vertical Visibility of 0ft.
Pressione 1019
Cambiamento -
Grezzo KHYA 260756Z AUTO 22004KT 4SM BR FEW004 20/18 A3011 RMK AO2 SLP196 T02000183 $

VFR

16.7°C / 14.4°C

[Più]
Vento variable 0kt
Visibilità >10km
Meteo -
Nuvole Clear
Pressione 1019
Cambiamento -
Grezzo KHYA 260656Z AUTO 00000KT 9SM CLR 17/14 A3010 RMK AO2 SLP195 T01670144 $

VFR

16.7°C / 15°C

[Più]
Vento variable 0kt
Visibilità >10km
Meteo -
Nuvole Clear
Pressione 1019
Cambiamento -
Grezzo KHYA 260556Z AUTO 00000KT 10SM CLR 17/15 A3011 RMK AO2 SLP196 T01670150 10233 20167 50001 $

TAF per Barnstable (KHYA)

From till


From till Wind 200º 8kt. Visibility 10km or more. Sky Clear.
From till Wind 210º 10kt. Visibility 4800m. Mist . Few Clouds 25000ft.
From till Wind 210º 10kt. Visibility 10km or more. Few Clouds 25000ft.
From till Wind 200º 13kt. Gust 21kt. Visibility 10km or more. Scattered Clouds 25000ft.
From till Wind 210º 18kt. Gust 27kt. Visibility 10km or more. Broken Clouds 300ft.
From till Wind 210º 15kt. Gust 25kt. Visibility 9700m. Light Showers Rain Mist . Overcast 300ft.

Grezzo: KHYA 262337Z 2700/2724 20008KT P6SM SKC FM270200 21010KT 3SM BR FEW250 FM270500 21010KT P6SM FEW250 FM271200 20013G21KT P6SM SCT250 FM271800 21018G27KT P6SM BKN003 FM272300 21015G25KT 6SM -SHRA BR OVC003

Radar e nowcasting per Barnstable

Pioviggine
Lieve
Moderato
Forte
Molto forte
Grandine

Il segnaposto è situato a Barnstable. Questa animazione mostra il radar delle precipitazioni per l'ultima ora, nonché una previsione 1h. Una pioviggine o una leggera caduta di neve potrebbero essere invisibili per il radar. L'intensità delle precipitazioni è codificata a colori, dal blu chiaro all'arancione.

Immagine satellitare per Barnstable, Stati Uniti

Il segnaposto è situato a Barnstable. [Più]

L'immagine satellitare in tempo reale combina la luce visibile durante il giorno con la radiazione infrarossa durante la notte. Di notte l'immagine non è scura poiché i raggi infrarossi possono rilevare differenze di temperatura. Purtroppo, le nuvole basse e la nebbia sono difficili da distinguere dalla temperatura del suolo e possono pertanto essere quasi invisibili durante la notte. Le immagini satellitari Meteosat per l'Europa vengono aggiornate in tempo reale ogni 5 minuti. Le immagini GOES-16 / GOES-17 (Nord e Sud America) e Himawari (Asia) vengono aggiornate ogni 10 minuti.

Tornare su